Hourly Weather Abasolo

Today, 27 November, Friday

Time Temperature Precipitation Wind Pressure Humidity
00:00 +23°C° 0 mm 2 mps 754 mmHg 90%
01:00 +23°C° 0 mm 2 mps 754 mmHg 90%
02:00 +23°C° 0 mm 2 mps 754 mmHg 90%
03:00 +23°C° 0 mm 2 mps 754 mmHg 91%
04:00 +23°C° 0 mm 2 mps 754 mmHg 92%
05:00 +23°C° 0 mm 2 mps 754 mmHg 93%
06:00 +25°C° 0 mm 3 mps 754 mmHg 86%
07:00 +26°C° 0 mm 3 mps 755 mmHg 79%
08:00 +28°C° 0 mm 4 mps 755 mmHg 72%
09:00 +29°C° 0 mm 4 mps 755 mmHg 65%
10:00 +32°C° 0 mm 5 mps 754 mmHg 58%
11:00 +34°C° 0 mm 5 mps 754 mmHg 50%
12:00 +34°C° 0 mm 5 mps 753 mmHg 51%
13:00 +34°C° 0 mm 6 mps 752 mmHg 51%
14:00 +34°C° 0 mm 7 mps 752 mmHg 51%
15:00 +32°C° 0 mm 6 mps 752 mmHg 59%
16:00 +29°C° 0 mm 5 mps 752 mmHg 67%
17:00 +27°C° 0 mm 5 mps 752 mmHg 75%
18:00 +26°C° 0 mm 4 mps 753 mmHg 81%
19:00 +25°C° 0 mm 4 mps 753 mmHg 86%
20:00 +24°C° 0 mm 3 mps 754 mmHg 91%
21:00 +24°C° 0 mm 3 mps 754 mmHg 92%
22:00 +23°C° 0 mm 2 mps 754 mmHg 94%
23:00 +23°C° 0 mm 2 mps 754 mmHg 95%

Tomorrow, 28 November, Saturday

Time Temperature Precipitation Wind Pressure Humidity
00:00 +23°C° 0 mm 1 mps 754 mmHg 95%
01:00 +22°C° 0 mm 1 mps 753 mmHg 95%
02:00 +22°C° 0 mm 1 mps 753 mmHg 95%
03:00 +22°C° 0 mm 1 mps 753 mmHg 94%
04:00 +22°C° 0 mm 1 mps 754 mmHg 93%
05:00 +22°C° 0 mm 1 mps 754 mmHg 92%
06:00 +24°C° 0 mm 1 mps 754 mmHg 84%
07:00 +25°C° 0 mm 1 mps 755 mmHg 77%
08:00 +27°C° 0 mm 1 mps 755 mmHg 69%
09:00 +29°C° 0 mm 2 mps 755 mmHg 64%
10:00 +30°C° 0 mm 2 mps 755 mmHg 58%
11:00 +33°C° 0 mm 3 mps 754 mmHg 53%
12:00 +33°C° 0.1 mm 4 mps 754 mmHg 55%
13:00 +32°C° 0.1 mm 4 mps 753 mmHg 58%
14:00 +32°C° 0.1 mm 4 mps 753 mmHg 61%
15:00 +30°C° 0.1 mm 4 mps 753 mmHg 67%
16:00 +28°C° 0.1 mm 4 mps 753 mmHg 74%
17:00 +27°C° 0.1 mm 3 mps 754 mmHg 81%
18:00 +26°C° 0.2 mm 4 mps 754 mmHg 81%
19:00 +23°C° 0.2 mm 5 mps 755 mmHg 81%
20:00 +22°C° 0.2 mm 6 mps 756 mmHg 81%
21:00 +22°C° 0.2 mm 5 mps 756 mmHg 79%
22:00 +21°C° 0.2 mm 4 mps 756 mmHg 77%
23:00 +21°C° 0.2 mm 4 mps 756 mmHg 76%

Day after tomorrow, 29 November, Sunday

Time Temperature Precipitation Wind Pressure Humidity
00:00 +20°C° 0.1 mm 4 mps 756 mmHg 75%
01:00 +20°C° 0.1 mm 3 mps 756 mmHg 74%
02:00 +20°C° 0.1 mm 3 mps 756 mmHg 73%
03:00 +19°C° 0 mm 3 mps 756 mmHg 72%
04:00 +19°C° 0 mm 3 mps 756 mmHg 71%
05:00 +19°C° 0 mm 3 mps 756 mmHg 71%
06:00 +19°C° 0 mm 3 mps 757 mmHg 66%
07:00 +19°C° 0 mm 3 mps 757 mmHg 62%
08:00 +19°C° 0 mm 3 mps 758 mmHg 58%
09:00 +20°C° 0 mm 3 mps 758 mmHg 52%
10:00 +20°C° 0 mm 3 mps 758 mmHg 46%
11:00 +21°C° 0 mm 4 mps 759 mmHg 40%
12:00 +21°C° 0 mm 4 mps 758 mmHg 37%
13:00 +22°C° 0 mm 4 mps 757 mmHg 35%
14:00 +22°C° 0 mm 4 mps 757 mmHg 32%
15:00 +22°C° 0 mm 4 mps 757 mmHg 34%
16:00 +21°C° 0 mm 4 mps 758 mmHg 36%
17:00 +20°C° 0 mm 3 mps 758 mmHg 37%
18:00 +20°C° 0 mm 3 mps 759 mmHg 38%
19:00 +20°C° 0 mm 2 mps 759 mmHg 38%
20:00 +20°C° 0 mm 1 mps 760 mmHg 38%
21:00 +21°C° 0 mm 1 mps 760 mmHg 38%
22:00 +21°C° 0 mm 1 mps 760 mmHg 38%
23:00 +21°C° 0 mm 1 mps 761 mmHg 38%

30 November, Monday

Time Temperature Precipitation Wind Pressure Humidity
00:00 +21°C° 0 mm 1 mps 760 mmHg 38%
01:00 +20°C° 0 mm 2 mps 760 mmHg 38%
02:00 +19°C° 0 mm 2 mps 760 mmHg 38%
03:00 +19°C° 0 mm 2 mps 760 mmHg 39%
04:00 +19°C° 0 mm 3 mps 761 mmHg 40%
05:00 +19°C° 0 mm 3 mps 761 mmHg 41%
06:00 +19°C° 0 mm 4 mps 762 mmHg 43%
07:00 +19°C° 0 mm 5 mps 763 mmHg 45%
08:00 +17°C° 0 mm 6 mps 763 mmHg 47%
09:00 +17°C° 0 mm 6 mps 764 mmHg 45%
10:00 +17°C° 0 mm 6 mps 764 mmHg 44%
11:00 +18°C° 0 mm 7 mps 764 mmHg 43%
12:00 +19°C° 0 mm 6 mps 763 mmHg 43%
13:00 +19°C° 0 mm 6 mps 763 mmHg 42%
14:00 +20°C° 0 mm 6 mps 762 mmHg 42%
15:00 +19°C° 0 mm 5 mps 762 mmHg 44%
16:00 +17°C° 0 mm 5 mps 762 mmHg 45%
17:00 +17°C° 0 mm 4 mps 763 mmHg 47%
18:00 +15°C° 0 mm 4 mps 763 mmHg 48%
19:00 +14°C° 0 mm 4 mps 763 mmHg 49%
20:00 +13°C° 0 mm 3 mps 764 mmHg 50%
21:00 +12°C° 0 mm 3 mps 763 mmHg 51%
22:00 +13°C° 0 mm 2 mps 763 mmHg 52%
23:00 +12°C° 0 mm 2 mps 763 mmHg 53%

1 December, Tuesday

Time Temperature Precipitation Wind Pressure Humidity
00:00 +12°C° 0 mm 1 mps 763 mmHg 54%
01:00 +11°C° 0 mm 1 mps 762 mmHg 55%
02:00 +11°C° 0 mm 1 mps 762 mmHg 57%
03:00 +10°C° 0 mm 1 mps 761 mmHg 57%
04:00 +10°C° 0 mm 1 mps 761 mmHg 57%
05:00 +9°C° 0 mm 0 mps 761 mmHg 57%
06:00 +10°C° 0 mm 0 mps 761 mmHg 52%
07:00 +12°C° 0 mm 0 mps 761 mmHg 47%
08:00 +14°C° 0 mm 0 mps 761 mmHg 42%
09:00 +18°C° 0 mm 1 mps 760 mmHg 40%
10:00 +19°C° 0 mm 2 mps 760 mmHg 37%
11:00 +20°C° 0 mm 3 mps 759 mmHg 35%
12:00 +21°C° 0 mm 3 mps 758 mmHg 37%
13:00 +22°C° 0 mm 4 mps 757 mmHg 38%
14:00 +23°C° 0 mm 4 mps 756 mmHg 39%
15:00 +21°C° 0 mm 4 mps 756 mmHg 47%
16:00 +19°C° 0 mm 4 mps 756 mmHg 54%
17:00 +17°C° 0 mm 3 mps 755 mmHg 61%
18:00 +17°C° 0 mm 3 mps 756 mmHg 67%
19:00 +16°C° 0 mm 3 mps 756 mmHg 73%
20:00 +15°C° 0 mm 2 mps 756 mmHg 78%
21:00 +15°C° 0 mm 2 mps 756 mmHg 78%
22:00 +15°C° 0 mm 2 mps 756 mmHg 77%
23:00 +15°C° 0 mm 2 mps 755 mmHg 76%

2 December, Wednesday

Time Temperature Precipitation Wind Pressure Humidity
00:00 +15°C° 0 mm 1 mps 755 mmHg 78%
01:00 +15°C° 0 mm 1 mps 754 mmHg 79%
02:00 +14°C° 0 mm 1 mps 754 mmHg 80%
03:00 +14°C° 0 mm 1 mps 754 mmHg 82%
04:00 +14°C° 0 mm 1 mps 754 mmHg 83%
05:00 +14°C° 0 mm 1 mps 754 mmHg 85%
06:00 +16°C° 0 mm 1 mps 754 mmHg 79%
07:00 +19°C° 0 mm 1 mps 755 mmHg 73%
08:00 +20°C° 0 mm 1 mps 755 mmHg 66%
09:00 +23°C° 0 mm 1 mps 755 mmHg 62%
10:00 +25°C° 0 mm 1 mps 755 mmHg 57%
11:00 +27°C° 0 mm 1 mps 755 mmHg 52%
12:00 +27°C° 0 mm 1 mps 755 mmHg 52%
13:00 +28°C° 0 mm 2 mps 754 mmHg 51%
14:00 +28°C° 0 mm 2 mps 754 mmHg 51%
15:00 +26°C° 0 mm 3 mps 754 mmHg 61%
16:00 +24°C° 0 mm 3 mps 755 mmHg 71%
17:00 +21°C° 0 mm 3 mps 755 mmHg 81%
18:00 +21°C° 0 mm 2 mps 756 mmHg 85%
19:00 +21°C° 0 mm 1 mps 757 mmHg 89%
20:00 +20°C° 0 mm 1 mps 757 mmHg 93%
21:00 +20°C° 0.1 mm 1 mps 758 mmHg 89%
22:00 +20°C° 0.1 mm 2 mps 758 mmHg 85%
23:00 +20°C° 0.1 mm 3 mps 758 mmHg 81%
Show more

We Need Your Consent

Meteoprog and our Service Providers may store and access personal data such as cookies, device identifiers or other similar technologies on your device and process such data to personalise content and ads, as well as provide social media features and to analyse the traffic.

  • Store and/or access information on your device

    Cookies, device identifiers or other information can be stored or accessed on your device for the purposes indicated above.

  • Personalised ads and content, ad and content measurement, audience insights, and products development

    Ads and content can be personalised based on a profile. More data can be added to better personalise ads and content. Ad and content performance can be measured. Insights about the audience who saw the ads and content can be derived. Such data can be used to develop or improve user’s experience, systems and software.

By clicking ‘I Agree’ you will allow the use of indicated cookies, device identifiers, web beacons or other similar technologies. Your settings can be changed in the browser on your device.

For certain purposes, legitimate interests may be relied on, rather than consent. You can read more about this in our Privacy and Cookie Policy.